Regional Weather Roundup
Issued by NWS Green Bay, WI

Home | Current Version | Previous Version | Text Only | Print | Product List | Glossary On
Versions: 1 2 3 4 5 6 7 8 9 10 11 12 13 14 15 16 17 18 19 20 21 22 23 24 25 26 27 28 29 30 31 32 33 34 35 36 37 38 39 40 41 42 43 44 45 46 47 48 49 50
000
ASUS43 KGRB 282159
RWRGRB

NORTH-CENTRAL AND NORTHEAST WISCONSIN REGIONAL WEATHER ROUNDUP
NATIONAL WEATHER SERVICE GREEN BAY WI
400 PM CST WED JAN 28 2015

WIZ005-009-010>012-018-019-282300-
NORTH CENTRAL WISCONSIN

CITY           SKY/WX    TMP DP  RH WIND       PRES   REMARKS
IRONWOOD       CLOUDY    32  23  69 S12       29.81F
MANITOWISH WTR NOT AVBL
ARBOR VITAE    NOT AVBL
EAGLE RIVER    NOT AVBL
LAND O LAKES   NOT AVBL
RHINELANDER    CLOUDY    28  20  71 SE8       29.90F
PHILLIPS       NOT AVBL
ANTIGO         NOT AVBL
TOMAHAWK       NOT AVBL
MERRILL        NOT AVBL
$$

WIZ013-073-282300-
NORTHEAST WISCONSIN

CITY           SKY/WX    TMP DP  RH WIND       PRES   REMARKS
IRON MOUNTAIN  MOCLDY    29  19  66 SE15      29.95F
MARINETTE      CLOUDY    30  25  80 S10       30.03F
$$

WIZ017-030-035>037-045-282300-
CENTRAL WISCONSIN

CITY           SKY/WX    TMP DP  RH WIND       PRES   REMARKS
MEDFORD        NOT AVBL
WAUSAU         CLOUDY    29  21  72 SE12      29.91F
MOSINEE        PTCLDY    28  23  80 SE7       29.93F
MARSHFIELD     CLOUDY    28  23  81 SE10      29.89F HAZE
WISC RAPIDS    CLOUDY    30  21  69 SE10      29.93F
STEVENS POINT  NOT AVBL
WAUPACA        NOT AVBL
SHAWANO        NOT AVBL
CLINTONVILLE   NOT AVBL
$$

WIZ038-039-048-051-282300-
FOX VALLEY

CITY           SKY/WX    TMP DP  RH WIND       PRES   REMARKS
NWS GREEN BAY  CLOUDY    31  24  75 SE14      30.02F
APPLETON       CLOUDY    30  19  64 S10       30.01F
OSHKOSH        CLOUDY    32  21  64 SE8       30.00F
FOND DU LAC    CLOUDY    33  21  61 SE14      30.00F
$$

WIZ022-050-052-282300-
EAST CENTRAL WISCONSIN

CITY           SKY/WX    TMP DP  RH WIND       PRES   REMARKS
STURGEON BAY   CLOUDY    30  25  80 S15       30.05F
MANITOWOC      NOT AVBL
SHEBOYGAN      MOCLDY    31  22  69 S12       30.04F
$$

LMZ563-521-522-541>543-282300-
LAKESHORE

STATION/POSITION TIME  TEMP    WIND        PRES    VSBY  WAVE
                       AIR SEA DIR/SP/G                  HT/PER
                 (UTC) (F)     (DEG/KT/KT) (MB)    (MI)  (FT/S)
SHEBOYGAN LKSHOR 2100   32     170/ 22/ 24 1019.2F
KEWAUNEE LKSHORE 2100   31     180/ 20/ 23 1017.3F
NORTHPORT PIER   2100   32     160/  7/ 15 1018.6F
SISTER BAY LKSHO 2100   32     170/ 12/ 15   N/A
CHAMBERS ISLAND  2100   31     160/  3/ 10 1017.9F
MENOMINEE LKSHOR 2100   30      10/  9     1018.2F
$$


USA.gov is the U.S. government's official web portal to all federal, state and local government web resources and services.